Change the Weather History Date:

Sunday, November 11, 2012

  Actual Average Record
Temperature  
Mean Temperature 63 °F -  
Max Temperature 74 °F 71 °F 81 °F (1975)
Min Temperature 52 °F 44 °F 30 °F (1956)
Degree Days  
Heating Degree Days 2    
Growing Degree Days 13 (Base 50)    
Moisture  
Dew Point 54 °F    
Average Humidity 71    
Maximum Humidity 89    
Minimum Humidity 52    
Precipitation  
Precipitation 0.00 in - - ()
Sea Level Pressure  
Sea Level Pressure 30.27 in    
Wind  
Wind Speed 7 mph (ESE)    
Max Wind Speed 20 mph    
Max Gust Speed 26 mph    
Visibility 10 miles    
Events      
Averages and records for this station are not official NWS values.
T = Trace of Precipitation, MM = Missing Value Source: NWS Daily Summary

Daily Weather History Graph

Daily Weather History Graph

Search for Another Location

Airport or City:

Trip Planner

Search our weather history database for the weather conditions in past years. The results will help you decide how hot, cold, wet, or windy it might be!

Date:

Astronomy

Nov. 11, 2012 Rise Set
Actual Time 6:09 AM CST 4:50 PM CST
Civil Twilight 5:43 AM CST 5:16 PM CST
Nautical Twilight 5:14 AM CST 5:45 PM CST
Astronomical Twilight 4:46 AM CST 6:13 PM CST
Moon 3:31 AM CST (11/11) 3:07 PM CST (11/11)
Length of Visible Light 11h 32m
Length of Day
10h 41m
Waning Crescent, 7% of the Moon is Illuminated
Nov 11
Waning Crescent
Nov 13
New
Nov 20
First Quarter
Nov 28
Full
Dec 6
Last Quarter

Hourly Weather History & Observations

Time (CST) Temp. Dew Point Humidity Pressure Visibility Wind Dir Wind Speed Gust Speed Precip Events Conditions
12:55 AM 53.1 °F 50.0 °F 89% 30.28 in 10.0 mi Calm Calm - N/A   Clear
1:55 AM 52.9 °F 48.4 °F 85% 30.26 in 10.0 mi ESE 1.2 mph - N/A   Clear
2:55 AM 53.2 °F 46.8 °F 79% 30.27 in 10.0 mi East 3.5 mph - N/A   Scattered Clouds
3:55 AM 54.7 °F 47.3 °F 76% 30.26 in 10.0 mi East 6.9 mph - N/A   Scattered Clouds
4:55 AM 57.0 °F 48.4 °F 73% 30.27 in 10.0 mi East 3.5 mph - N/A   Clear
5:55 AM 54.3 °F 45.3 °F 72% 30.29 in 10.0 mi ENE 8.1 mph - N/A   Scattered Clouds
6:57 AM 55.8 °F 49.8 °F 80% 30.28 in 10.0 mi East 6.9 mph - N/A   Scattered Clouds
7:55 AM 62.4 °F 54.9 °F 76% 30.31 in 10.0 mi ESE 10.4 mph - N/A   Scattered Clouds
8:56 AM 66.9 °F 56.1 °F 68% 30.32 in 10.0 mi East 10.4 mph - N/A   Mostly Cloudy
9:55 AM 67.8 °F 57.0 °F 68% 30.32 in 10.0 mi East 10.4 mph - N/A   Mostly Cloudy
10:55 AM 72.9 °F 57.2 °F 58% 30.29 in 10.0 mi ESE 19.6 mph - N/A   Mostly Cloudy
11:55 AM 73.0 °F 56.7 °F 56% 30.28 in 10.0 mi SE 18.4 mph 26.5 mph N/A   Mostly Cloudy
12:55 PM 74.1 °F 56.5 °F 54% 30.26 in 10.0 mi SE 17.3 mph - N/A   Mostly Cloudy
1:56 PM 74.1 °F 56.3 °F 54% 30.26 in 10.0 mi SE 18.4 mph 26.5 mph N/A   Scattered Clouds
2:56 PM 73.6 °F 54.9 °F 52% 30.25 in 10.0 mi SE 16.1 mph - N/A   Scattered Clouds
3:55 PM 71.8 °F 56.5 °F 58% 30.25 in 10.0 mi SE 15.0 mph - N/A   Partly Cloudy
4:55 PM 69.4 °F 57.0 °F 65% 30.25 in 10.0 mi SE 12.7 mph - N/A   Partly Cloudy
5:55 PM 68.2 °F 58.8 °F 72% 30.25 in 10.0 mi SE 10.4 mph - N/A   Partly Cloudy
6:55 PM 67.3 °F 58.8 °F 74% 30.24 in 10.0 mi SE 8.1 mph - N/A   Partly Cloudy
7:55 PM 66.7 °F 59.2 °F 77% 30.25 in 10.0 mi SE 6.9 mph - N/A   Partly Cloudy
8:55 PM 64.9 °F 57.9 °F 78% 30.25 in 10.0 mi ESE 5.8 mph - N/A   Scattered Clouds
9:55 PM 64.0 °F 57.9 °F 80% 30.24 in 6.0 mi ESE 5.8 mph - N/A   Scattered Clouds
10:55 PM 64.0 °F 57.2 °F 78% 30.24 in 10.0 mi East 3.5 mph - N/A   Scattered Clouds
11:55 PM 61.2 °F 55.9 °F 83% 30.23 in 10.0 mi East 3.5 mph - N/A   Scattered Clouds